TimeEST,TemperatureF,Dew PointF,Humidity,Sea Level PressureIn,VisibilityMPH,Wind Direction,Wind SpeedMPH,Gust SpeedMPH,PrecipitationIn,Events,Conditions,WindDirDegrees,DateUTC
12:15 AM,28.4,23.0,80,30.31,10.0,Calm,Calm,-,N/A,,Clear,0,2014-01-01 05:15:00
12:35 AM,28.4,23.0,80,30.31,10.0,Calm,Calm,-,N/A,,Clear,0,2014-01-01 05:35:00
12:55 AM,28.4,24.8,86,30.31,10.0,ENE,3.5,-,N/A,,Clear,60,2014-01-01 05:55:00
1:15 AM,28.4,23.0,80,30.31,10.0,NE,4.6,-,N/A,,Clear,50,2014-01-01 06:15:00
1:35 AM,28.4,23.0,80,30.30,10.0,East,3.5,-,N/A,,Clear,80,2014-01-01 06:35:00
1:55 AM,28.4,23.0,80,30.30,10.0,ENE,3.5,-,N/A,,Clear,60,2014-01-01 06:55:00
2:15 AM,28.4,23.0,80,30.30,10.0,Calm,Calm,-,N/A,,Clear,0,2014-01-01 07:15:00
2:35 AM,26.6,24.8,93,30.30,10.0,ENE,3.5,-,N/A,,Clear,70,2014-01-01 07:35:00
2:55 AM,28.4,23.0,80,30.31,10.0,East,3.5,-,N/A,,Clear,80,2014-01-01 07:55:00
3:15 AM,28.4,23.0,80,30.30,10.0,East,3.5,-,N/A,,Clear,80,2014-01-01 08:15:00
3:35 AM,28.4,23.0,80,30.31,10.0,Calm,Calm,-,N/A,,Clear,0,2014-01-01 08:35:00
3:55 AM,26.6,23.0,86,30.31,10.0,Calm,Calm,-,N/A,,Clear,0,2014-01-01 08:55:00
4:15 AM,26.6,23.0,86,30.30,10.0,Calm,Calm,-,N/A,,Clear,0,2014-01-01 09:15:00
4:35 AM,24.8,23.0,93,30.30,10.0,Calm,Calm,-,N/A,,Clear,0,2014-01-01 09:35:00
4:55 AM,26.6,23.0,86,30.30,10.0,Calm,Calm,-,N/A,,Clear,0,2014-01-01 09:55:00
5:15 AM,26.6,24.8,93,30.30,10.0,East,3.5,-,N/A,,Clear,80,2014-01-01 10:15:00
5:35 AM,24.8,23.0,93,30.30,10.0,East,4.6,-,N/A,,Clear,90,2014-01-01 10:35:00
5:55 AM,24.8,23.0,93,30.30,10.0,East,3.5,-,N/A,,Clear,80,2014-01-01 10:55:00
6:15 AM,24.8,23.0,93,30.30,10.0,Calm,Calm,-,N/A,,Clear,0,2014-01-01 11:15:00
6:35 AM,23.0,23.0,100,30.30,10.0,Calm,Calm,-,N/A,,Clear,0,2014-01-01 11:35:00
6:55 AM,23.0,23.0,100,30.30,10.0,Calm,Calm,-,N/A,,Clear,0,2014-01-01 11:55:00
7:15 AM,24.8,23.0,93,30.30,10.0,Calm,Calm,-,N/A,,Clear,0,2014-01-01 12:15:00
7:35 AM,23.0,23.0,100,30.30,10.0,Calm,Calm,-,N/A,,Clear,0,2014-01-01 12:35:00
7:55 AM,23.0,23.0,100,30.30,7.0,Calm,Calm,-,N/A,,Clear,0,2014-01-01 12:55:00
8:15 AM,23.0,21.2,93,30.31,10.0,Calm,Calm,-,N/A,,Scattered Clouds,0,2014-01-01 13:15:00
8:35 AM,23.0,23.0,100,30.30,10.0,Calm,Calm,-,N/A,,Clear,0,2014-01-01 13:35:00
8:55 AM,24.8,23.0,93,30.30,10.0,Calm,Calm,-,N/A,,Clear,0,2014-01-01 13:55:00
9:15 AM,26.6,26.6,100,30.30,10.0,Calm,Calm,-,N/A,,Clear,0,2014-01-01 14:15:00
9:35 AM,28.4,26.6,93,30.29,10.0,Calm,Calm,-,N/A,,Clear,0,2014-01-01 14:35:00
9:55 AM,30.2,26.6,86,30.29,10.0,Calm,Calm,-,N/A,,Clear,0,2014-01-01 14:55:00
10:15 AM,32.0,26.6,80,30.29,10.0,Calm,Calm,-,N/A,,Clear,0,2014-01-01 15:15:00
10:35 AM,32.0,26.6,80,30.29,10.0,Calm,Calm,-,N/A,,Clear,0,2014-01-01 15:35:00
10:55 AM,33.8,26.6,75,30.29,10.0,Calm,Calm,-,N/A,,Clear,0,2014-01-01 15:55:00
11:15 AM,35.6,26.6,70,30.28,10.0,Calm,Calm,-,N/A,,Clear,0,2014-01-01 16:15:00
11:35 AM,37.4,28.4,70,30.27,10.0,Calm,Calm,-,N/A,,Clear,0,2014-01-01 16:35:00
11:55 AM,41.0,28.4,61,30.25,10.0,Calm,Calm,-,N/A,,Clear,0,2014-01-01 16:55:00
12:15 PM,44.6,26.6,49,30.24,10.0,East,3.5,-,N/A,,Clear,100,2014-01-01 17:15:00
12:35 PM,46.4,23.0,40,30.21,10.0,Calm,Calm,-,N/A,,Clear,0,2014-01-01 17:35:00
12:55 PM,46.4,21.2,37,30.20,10.0,Calm,Calm,-,N/A,,Clear,0,2014-01-01 17:55:00
1:15 PM,46.4,21.2,37,30.18,10.0,Calm,Calm,-,N/A,,Clear,0,2014-01-01 18:15:00
1:35 PM,50.0,21.2,32,30.18,10.0,Calm,Calm,-,N/A,,Clear,0,2014-01-01 18:35:00
1:55 PM,50.0,21.2,32,30.17,10.0,SSE,3.5,-,N/A,,Clear,160,2014-01-01 18:55:00
2:15 PM,51.8,19.4,28,30.16,10.0,West,4.6,-,N/A,,Clear,280,2014-01-01 19:15:00
2:35 PM,51.8,17.6,26,30.16,10.0,SSW,6.9,-,N/A,,Clear,200,2014-01-01 19:35:00
2:55 PM,50.0,14.0,24,30.15,10.0,SW,5.8,-,N/A,,Clear,230,2014-01-01 19:55:00
3:15 PM,50.0,14.0,24,30.15,10.0,SSW,6.9,18.4,N/A,,Clear,210,2014-01-01 20:15:00
3:35 PM,50.0,14.0,24,30.14,10.0,SW,6.9,-,N/A,,Clear,230,2014-01-01 20:35:00
3:55 PM,50.0,14.0,24,30.14,10.0,West,4.6,-,N/A,,Clear,270,2014-01-01 20:55:00
4:15 PM,48.2,14.0,25,30.14,10.0,SSE,4.6,-,N/A,,Clear,150,2014-01-01 21:15:00
4:35 PM,46.4,17.6,32,30.14,10.0,Calm,Calm,-,N/A,,Clear,0,2014-01-01 21:35:00
4:55 PM,44.6,17.6,34,30.14,10.0,Calm,Calm,-,N/A,,Clear,0,2014-01-01 21:55:00
5:15 PM,44.6,17.6,34,30.13,10.0,Calm,Calm,-,N/A,,Clear,0,2014-01-01 22:15:00
5:35 PM,42.8,17.6,36,30.13,10.0,Calm,Calm,-,N/A,,Clear,0,2014-01-01 22:35:00
5:55 PM,42.8,17.6,36,30.13,10.0,Calm,Calm,-,N/A,,Clear,0,2014-01-01 22:55:00
6:15 PM,41.0,19.4,42,30.13,10.0,Calm,Calm,-,N/A,,Clear,0,2014-01-01 23:15:00
6:35 PM,41.0,19.4,42,30.13,10.0,Calm,Calm,-,N/A,,Clear,0,2014-01-01 23:35:00
6:55 PM,41.0,19.4,42,30.13,10.0,Calm,Calm,-,N/A,,Clear,0,2014-01-01 23:55:00
7:15 PM,39.2,19.4,45,30.13,10.0,Calm,Calm,-,N/A,,Clear,0,2014-01-02 00:15:00
7:35 PM,37.4,19.4,48,30.12,10.0,Calm,Calm,-,N/A,,Clear,0,2014-01-02 00:35:00
7:55 PM,37.4,21.2,52,30.12,10.0,Calm,Calm,-,N/A,,Clear,0,2014-01-02 00:55:00
8:15 PM,37.4,21.2,52,30.12,10.0,Calm,Calm,-,N/A,,Clear,0,2014-01-02 01:15:00
8:35 PM,35.6,23.0,60,30.11,10.0,Calm,Calm,-,N/A,,Clear,0,2014-01-02 01:35:00
8:55 PM,35.6,23.0,60,30.10,10.0,Calm,Calm,-,N/A,,Clear,0,2014-01-02 01:55:00
9:15 PM,33.8,23.0,65,30.10,10.0,Calm,Calm,-,N/A,,Clear,0,2014-01-02 02:15:00
9:35 PM,33.8,23.0,65,30.09,10.0,Calm,Calm,-,N/A,,Clear,0,2014-01-02 02:35:00
9:55 PM,33.8,23.0,65,30.09,10.0,Calm,Calm,-,N/A,,Clear,0,2014-01-02 02:55:00
10:15 PM,33.8,23.0,65,30.08,10.0,East,8.1,-,N/A,,Clear,100,2014-01-02 03:15:00
10:35 PM,32.0,23.0,69,30.08,10.0,Calm,Calm,-,N/A,,Clear,0,2014-01-02 03:35:00
10:55 PM,32.0,24.8,75,30.08,10.0,ESE,4.6,-,N/A,,Clear,110,2014-01-02 03:55:00
11:15 PM,32.0,24.8,75,30.07,10.0,East,3.5,-,N/A,,Clear,100,2014-01-02 04:15:00
11:35 PM,32.0,24.8,75,30.06,10.0,East,3.5,-,N/A,,Clear,90,2014-01-02 04:35:00
11:55 PM,30.2,24.8,80,30.05,10.0,Calm,Calm,-,N/A,,Clear,0,2014-01-02 04:55:00